RH
27 25 22 23 25 24 22 19 18 20 20 19 20 23 26 29 32 39 99 100 100 99 100 99 100 99 100
33 34 27 24 25 24 23 22 21 22 23 22 24 27 32 36 39 41 92 100 95 86 89 87 94 100 100
35 38 36 30 27 25 22 22 22 25 27 26 28 29 33 38 41 57 89 80 46 44 42 39 88 92 99
39 39 40 48 40 31 25 24 26 29 30 31 32 33 39 45 49 49 50 48 46 43 40 57 87 70 99
47 41 42 62 80 45 33 35 33 31 32 39 42 46 48 54 59 58 51 48 45 43 44 95 100 100 100
53 50 48 62 96 87 46 54 56 37 39 43 53 52 49 62 63 58 51 49 47 48 96 97 98 100 98
56 55 51 75 97 88 55 53 57 56 59 51 65 58 50 60 62 57 51 51 49 52 57 56 54 96 100
64 62 72 98 99 98 71 68 66 53 63 78 90 78 59 56 58 55 54 53 51 50 48 53 97 88 46
62 85 81 99 99 98 81 71 67 66 73 99 96 80 70 59 60 57 55 56 52 51 54 69 77 73 36
79 91 98 98 99 82 58 68 74 100 99 100 98 89 88 75 65 53 59 61 63 57 48 52 48 43 35
96 98 98 98 97 77 88 79 97 100 94 100 99 100 100 95 90 74 67 65 63 61 57 53 49 45 37
100 100 100 100 94 91 86 84 90 95 96 100 98 92 98 98 100 93 78 73 66 61 56 53 50 45 40
100 96 98 91 82 78 94 98 98 97 98 98 96 95 99 96 97 97 93 82 72 63 59 57 57 56 50
99 97 93 89 86 89 96 91 97 94 92 96 95 97 95 97 97 94 92 94 70 68 68 67 64 61 56
98 96 94 96 96 97 96 97 97 95 93 94 95 99 100 100 98 92 88 80 75 72 76 72 68 64 62
98 97 98 96 96 96 97 96 96 95 95 94 94 100 98 91 91 82 80 80 76 78 80 82 72 65 64
97 98 98 96 98 96 91 96 95 95 95 92 97 96 99 100 91 82 85 79 81 81 79 76 74 70 68
Wind_Speed
25 24 24 23 23 23 22 23 22 21 21 20 20 21 22 22 22 22 15 13 15 15 13 13 10 10 10
28 27 26 25 24 24 23 23 24 22 21 21 21 21 22 22 22 21 18 18 16 16 15 15 12 11 12
32 30 29 28 28 26 25 25 24 23 23 21 21 22 22 22 22 20 21 23 20 19 18 17 14 14 12
35 34 32 30 30 29 28 26 26 24 23 23 23 21 19 18 18 20 23 24 23 21 19 17 16 15 12
38 37 35 34 33 29 29 28 27 25 24 18 20 17 16 17 21 23 23 24 24 22 19 16 15 14 14
41 41 38 35 35 27 28 27 26 24 21 21 23 22 20 19 21 24 23 22 23 22 18 18 17 17 17
41 41 38 37 31 26 28 28 30 27 25 29 25 25 19 18 20 22 23 23 22 22 22 22 21 18 17
41 38 38 34 34 28 27 30 30 30 25 31 24 22 21 22 19 17 19 20 21 23 23 20 17 20 21
39 40 36 35 35 30 32 31 32 28 26 26 22 24 20 22 22 20 21 21 21 18 18 15 17 22 24
35 38 38 33 30 30 28 30 29 21 23 23 18 19 15 20 14 4 4 7 12 17 21 24 23 24 26
32 32 30 29 30 28 30 30 30 30 28 27 28 24 24 24 26 27 24 23 22 22 23 24 24 25 28
30 30 30 29 27 27 29 32 31 31 28 28 27 26 26 28 23 23 26 27 24 23 22 21 22 24 26
33 31 31 26 23 24 25 26 29 27 29 29 29 29 30 31 30 28 29 27 28 25 18 17 19 21 25
34 29 27 25 25 25 26 25 27 29 27 27 25 26 29 30 31 35 31 29 27 26 25 25 24 24 25
32 28 27 27 27 27 26 27 28 28 30 26 23 25 27 28 35 34 32 31 30 27 27 28 27 27 26
32 28 27 27 27 27 27 27 27 28 27 25 21 24 27 32 31 32 30 28 24 24 25 28 32 28 29
31 29 28 29 27 26 27 26 26 26 26 24 22 23 25 27 26 25 25 23 23 25 27 30 34 33 28
Wind_Direction
279 282 281 282 284 287 288 290 290 292 292 293 293 292 290 290 288 285 276 262 270 280 275 271 268 259 262
276 279 281 283 285 285 287 287 287 287 286 289 291 290 288 287 285 280 270 274 277 276 269 268 260 256 255
272 276 279 283 285 285 286 284 284 284 286 290 289 289 285 282 278 271 262 272 283 280 274 271 260 265 257
268 271 273 278 280 283 285 282 280 280 284 287 288 284 279 274 270 274 280 281 279 276 272 266 259 266 250
265 266 268 274 279 284 281 282 280 281 285 284 285 280 278 271 275 277 279 275 275 272 265 259 261 251 249
264 264 268 272 280 273 275 276 280 281 283 281 281 283 281 273 273 275 276 267 269 267 258 259 259 257 259
264 265 268 275 277 263 265 271 273 281 282 281 283 288 285 273 274 273 270 265 263 258 259 264 264 258 250
266 267 267 280 271 267 266 272 271 273 274 277 286 287 293 289 282 272 262 262 259 258 262 260 249 251 258
263 271 268 275 267 258 256 264 266 268 273 275 282 290 293 290 288 273 265 263 260 250 245 244 256 262 266
259 260 269 265 257 251 254 253 255 265 265 266 270 287 300 299 281 239 237 246 270 260 262 271 267 265 265
258 263 263 257 248 243 251 254 253 254 265 265 274 276 273 275 276 275 279 277 272 268 264 265 264 263 266
258 263 259 259 256 250 249 250 255 260 265 269 269 272 273 275 273 279 288 289 285 280 271 263 260 261 261
256 263 266 268 259 250 245 249 258 253 257 258 262 267 266 269 275 280 287 285 287 285 275 265 267 265 263
252 262 264 261 254 252 252 253 256 263 261 262 263 260 262 267 274 280 281 276 283 284 285 280 276 272 270
247 254 258 258 254 253 254 254 260 259 267 265 265 260 264 266 272 274 277 279 285 288 284 282 278 278 277
251 252 258 261 256 253 250 259 259 262 262 266 260 262 266 269 265 273 277 279 284 284 281 279 281 282 285
255 254 257 260 253 252 254 256 258 258 263 264 264 263 267 268 278 279 278 283 285 284 285 284 286 287 289